Temp
60 49 46 50 55 56 56 55 55 61 68 65 64 65 70 74 75 74 72 71 74 75 78 80 82 82 78 78 74 71 71 75 76 80 80 78 76 75 76 78 79 80 79 79
55 48 56 61 60 58 56 53 53 60 66 64 63 64 70 73 73 75 72 70 73 74 77 78 77 79 76 79 76 74 78 77 78 82 83 82 77 75 77 77 78 78 79 79
50 56 64 60 58 56 56 53 55 55 62 65 61 58 62 70 75 77 77 76 73 73 79 82 81 75 73 79 82 77 78 79 81 82 82 78 77 77 76 77 75 76 81 80
55 62 60 58 56 59 51 62 62 60 55 47 60 45 58 62 67 74 76 75 74 74 72 81 84 74 73 76 81 83 80 78 80 82 80 80 80 72 80 76 74 74 76 76
45 47 51 49 52 58 51 61 56 54 48 49 53 47 53 60 63 67 74 74 75 76 72 73 76 77 77 79 79 80 80 79 79 78 77 78 79 74 73 73 74 74 74 75
48 57 55 56 58 57 59 54 51 48 46 37 49 49 50 56 62 67 72 71 76 77 76 79 78 79 79 80 80 81 80 81 82 77 77 73 72 73 70 71 71 72 72 73
49 51 60 60 51 56 56 49 34 31 32 32 52 49 52 60 67 69 69 74 76 77 78 79 78 75 73 76 78 78 77 74 77 76 74 74 76 73 70 71 70 70 70 70
36 34 52 60 54 47 42 44 38 26 28 36 52 43 52 66 70 73 75 74 78 78 76 80 81 80 76 77 77 78 75 74 75 77 73 74 75 72 74 73 71 71 70 70
35 39 54 54 57 52 46 38 45 37 42 35 37 51 60 66 68 70 72 75 74 75 80 78 82 82 75 78 78 78 76 76 75 75 74 73 75 74 71 71 71 70 71 70
38 32 50 53 53 53 47 53 37 32 28 26 38 42 47 53 55 66 70 72 73 74 80 80 80 81 81 77 78 77 76 75 74 73 73 71 70 70 69 69 67 67 68 69
43 39 42 47 44 43 42 40 40 38 36 29 31 39 51 50 53 53 58 73 68 62 69 73 80 79 80 75 77 74 74 72 70 70 70 69 68 68 69 68 68 68 67 67
42 36 30 40 50 52 46 43 42 31 32 38 35 37 53 54 52 55 61 69 65 64 64 65 68 70 74 73 73 70 69 69 68 68 68 67 68 67 66 64 65 66 65 65
42 36 26 32 42 44 37 40 45 43 41 36 33 37 52 55 53 55 57 60 62 63 64 64 67 68 68 69 69 67 67 67 67 68 67 66 66 65 63 64 65 65 65 64
45 35 33 26 35 41 38 44 45 39 33 36 40 46 46 47 50 53 55 59 60 62 63 63 65 65 67 67 67 66 65 67 67 66 66 65 65 63 62 63 62 62 62 61
40 28 37 40 43 43 41 42 44 36 39 36 46 47 46 49 51 53 55 58 60 63 63 63 64 64 65 64 64 65 66 65 66 66 63 62 61 61 62 61 60 59 59 58
43 34 36 33 42 44 40 43 44 47 44 42 45 47 51 54 54 54 58 59 60 62 63 62 62 63 63 63 63 64 65 65 65 63 62 62 61 61 59 58 57 56 55 54
38 34 30 26 39 38 33 44 46 49 52 51 43 47 51 51 53 54 53 54 53 55 59 59 60 60 61 62 63 63 64 65 64 64 63 62 61 59 58 57 55 52 50 51
37 34 35 29 31 24 43 50 54 52 53 56 50 49 52 52 50 54 55 54 53 52 54 57 56 57 61 63 63 65 65 64 64 62 62 62 60 57 56 54 51 50 49 49
46 39 32 27 28 36 42 44 42 43 47 56 50 52 51 50 51 49 54 54 53 53 51 53 54 53 56 58 59 59 59 59 58 58 57 58 57 55 53 51 49 49 50 48
43 40 34 32 27 27 37 43 49 49 40 54 53 51 49 53 43 45 51 53 52 52 52 52 55 56 54 55 57 57 56 56 55 55 55 56 55 53 51 50 48 47 49 47
35 33 31 31 30 35 40 43 51 39 41 49 55 53 52 49 47 48 51 50 52 51 51 51 51 50 53 56 56 53 54 52 54 56 55 54 54 52 51 48 47 47 47 48
34 33 32 33 32 30 42 44 40 42 44 50 53 54 46 47 47 48 49 49 50 50 51 52 50 50 51 54 53 51 50 53 55 54 54 52 52 54 51 50 47 49 45 45
34 37 34 34 33 39 43 41 44 45 51 52 52 49 49 47 46 47 47 48 48 49 49 51 49 49 49 49 51 49 49 54 54 53 51 51 52 51 51 49 45 44 46 45
40 42 37 36 38 39 42 44 45 46 47 52 51 51 50 47 47 47 47 47 47 48 48 49 48 47 46 49 49 49 53 55 54 50 49 49 46 44 43 42 40 37 35 38
37 41 38 36 39 42 42 43 44 45 46 47 50 51 50 49 47 48 47 47 48 48 48 49 47 47 47 49 49 51 52 53 51 49 48 47 44 41 37 36 37 36 34 35
40 38 35 33 41 40 41 44 46 43 43 45 45 46 48 48 47 48 47 48 48 48 49 48 48 49 51 52 49 49 48 48 48 47 44 44 42 41 39 36 34 38 38 39
MSLP
1004.26 1004.72 1003.82 1004.26 1004.24 1003.68 1003.51 1002.55 1001.52 1000.20 999.85 999.63 998.90 997.43 997.44 997.19 997.33 997.72 998.12 998.45 998.43 998.54 998.53 998.72 999.12 999.34 1000.52 1001.76 1002.60 1003.14 1003.87 1004.10 1004.47 1005.78 1006.03 1007.34 1008.17 1008.42 1008.40 1008.42 1008.27 1008.62 1009.22 1009.76
1004.42 1003.11 1003.56 1004.06 1003.53 1003.00 1002.76 1002.01 1001.08 1000.15 999.76 999.48 998.79 997.40 996.75 996.50 996.44 996.64 997.26 997.76 998.18 998.54 998.54 998.60 998.72 999.30 1000.00 1000.76 1002.32 1003.41 1003.40 1003.84 1004.13 1003.86 1005.38 1006.64 1007.90 1007.94 1008.04 1008.04 1008.14 1008.29 1008.75 1009.26
1003.81 1002.57 1002.93 1002.86 1002.57 1002.15 1001.63 1001.24 1000.70 1000.23 999.80 998.94 998.76 997.65 996.88 995.95 995.38 995.64 995.98 996.40 997.20 997.64 998.11 998.21 998.58 998.92 999.55 1000.02 1000.70 1002.63 1002.90 1003.88 1003.38 1004.16 1005.58 1006.44 1007.26 1007.67 1007.75 1007.83 1008.08 1008.11 1008.33 1008.76
1003.22 1002.39 1002.33 1001.90 1001.76 1001.50 1000.89 1000.44 1000.31 1000.21 1000.04 999.27 998.64 997.88 996.84 996.08 995.46 995.06 994.90 995.60 996.45 996.79 997.30 997.27 997.78 998.55 999.19 999.59 999.88 1001.09 1001.89 1002.95 1003.55 1004.07 1004.86 1005.56 1006.04 1006.98 1007.06 1007.47 1007.90 1008.30 1008.44 1008.81
1004.36 1003.82 1002.52 1002.13 1002.05 1001.74 1001.39 1001.05 1001.34 1001.56 1001.12 1000.32 998.92 998.41 996.86 995.97 995.43 995.11 994.38 995.17 995.62 996.03 996.61 997.10 997.36 997.85 998.38 999.13 999.42 999.99 1000.95 1002.30 1003.20 1003.64 1004.22 1005.14 1005.91 1006.36 1006.60 1007.32 1008.06 1008.72 1008.76 1009.15
1003.25 1002.78 1003.16 1001.51 1000.80 1001.83 1001.98 1001.71 1001.92 1002.86 1002.22 1001.03 999.35 998.43 997.09 996.02 995.54 995.01 994.26 994.47 995.00 995.32 995.54 995.94 996.48 997.04 997.87 998.34 998.82 999.39 1000.20 1001.17 1002.07 1002.98 1003.98 1004.91 1005.70 1006.82 1007.22 1007.62 1008.28 1008.77 1009.07 1009.32
1003.71 1002.99 1001.37 1001.41 1001.30 1000.91 1001.18 1001.50 1003.48 1003.89 1003.18 1001.74 999.48 997.98 996.63 995.06 994.53 994.16 993.90 993.53 993.57 994.20 994.73 995.14 995.82 996.47 997.15 997.88 998.27 999.12 999.98 1001.09 1001.84 1002.80 1003.60 1004.60 1005.18 1005.97 1006.72 1007.44 1008.04 1008.82 1009.26 1009.51
1003.55 1002.22 1001.36 1000.83 1000.99 1001.20 1001.46 1002.43 1002.79 1003.80 1003.27 1001.42 999.90 998.12 995.97 994.53 994.02 993.23 992.98 993.11 992.84 992.85 993.36 993.85 994.72 995.55 996.34 997.44 997.81 998.64 999.86 1000.90 1001.61 1002.55 1003.41 1004.13 1004.80 1005.64 1006.28 1007.17 1007.80 1008.45 1008.96 1009.45
1004.88 1002.59 1001.63 1001.38 1001.07 1001.88 1001.58 1002.44 1002.92 1002.94 1003.23 1002.79 1001.48 998.26 995.85 994.28 993.43 993.32 992.82 992.40 992.40 992.49 992.54 993.04 993.74 994.53 995.59 996.57 997.51 998.11 999.27 1000.28 1001.24 1002.23 1003.40 1004.23 1004.92 1005.66 1006.64 1007.55 1008.10 1008.72 1009.22 1009.79
1006.10 1004.41 1002.07 1001.20 1001.29 1001.58 1001.90 1001.66 1004.00 1004.16 1003.83 1002.74 999.95 998.45 996.14 995.28 994.88 993.89 992.78 992.16 991.84 991.52 991.35 992.02 992.93 993.59 994.53 995.78 997.05 998.05 998.80 999.91 1001.16 1002.41 1003.59 1004.58 1005.37 1006.34 1007.42 1007.92 1008.66 1009.20 1009.72 1010.18
1005.77 1005.15 1003.15 1002.44 1001.27 1001.23 1002.03 1002.70 1004.10 1003.73 1003.73 1002.66 1000.71 997.97 996.35 995.95 995.09 995.36 994.04 991.82 992.05 991.68 991.13 991.63 992.20 993.06 993.96 995.33 996.44 997.90 999.10 1000.42 1001.72 1002.74 1004.15 1004.94 1006.04 1006.96 1007.76 1008.46 1009.19 1009.68 1010.13 1010.59
1005.62 1005.27 1004.17 1002.52 1000.94 1001.59 1002.09 1002.61 1002.60 1003.20 1003.28 1002.40 1000.98 998.29 997.60 996.61 995.72 995.81 993.55 992.43 992.66 992.40 992.07 992.42 992.52 993.16 994.20 995.58 997.02 998.52 999.81 1000.95 1002.22 1003.37 1004.79 1005.91 1006.62 1007.50 1008.37 1009.20 1009.94 1010.28 1010.78 1011.21
1005.96 1005.63 1004.65 1002.63 1002.36 1002.95 1003.77 1003.28 1002.42 1002.30 1001.84 1000.02 1000.69 999.19 998.26 997.46 996.62 996.11 994.15 993.30 993.12 993.22 993.27 993.71 993.96 994.74 995.70 996.83 998.17 999.46 1000.71 1001.74 1003.00 1004.42 1005.56 1007.09 1007.78 1008.31 1009.17 1009.94 1010.47 1010.74 1011.15 1011.55
1006.36 1005.85 1005.45 1004.96 1003.84 1003.42 1002.92 1002.20 1002.14 1002.04 1001.11 1000.89 1000.58 999.64 999.14 998.31 998.35 996.32 994.39 994.08 994.30 994.30 994.54 995.34 996.21 996.74 997.59 998.24 998.98 1000.36 1001.72 1002.71 1003.70 1005.25 1006.55 1007.46 1008.62 1009.43 1010.09 1010.52 1010.91 1011.49 1011.75 1011.90
1006.02 1006.07 1005.73 1005.10 1004.09 1003.18 1002.50 1001.64 1000.74 1000.59 1000.82 1001.60 999.64 999.13 999.04 999.45 999.10 997.56 996.00 996.06 995.46 995.37 996.02 996.53 997.32 998.42 998.67 999.19 1000.26 1001.73 1002.55 1003.92 1004.60 1005.80 1007.14 1008.40 1009.54 1010.23 1010.71 1011.36 1011.73 1012.01 1012.42 1013.01
1005.92 1005.82 1005.67 1004.78 1003.56 1002.41 1001.55 1000.74 999.96 999.01 999.46 1000.57 999.40 999.41 999.19 999.15 998.52 997.58 997.38 997.50 997.71 997.54 997.51 997.86 997.96 999.07 999.81 1000.23 1001.59 1002.66 1003.69 1004.71 1005.68 1006.42 1007.99 1009.24 1010.38 1011.03 1011.56 1012.07 1012.47 1012.92 1013.31 1013.59
1006.66 1005.87 1005.62 1004.83 1003.58 1002.52 1000.75 998.78 997.35 997.23 997.38 998.07 998.16 998.31 998.75 998.90 999.46 999.03 999.31 999.42 1000.01 999.81 999.73 999.72 1000.00 1000.30 1000.04 1000.85 1001.99 1003.22 1004.50 1005.71 1006.52 1007.74 1009.14 1010.39 1011.27 1011.77 1012.34 1012.77 1013.21 1013.75 1014.20 1014.52
1005.64 1005.89 1006.05 1004.89 1003.82 1002.05 999.53 998.18 995.87 996.47 996.25 996.77 997.40 997.81 998.06 999.08 1000.18 1000.33 1000.64 1000.79 1001.29 1001.11 1001.88 1002.11 1001.78 999.36 1001.98 1002.65 1002.99 1004.21 1005.37 1007.00 1007.67 1009.18 1010.51 1011.29 1011.81 1012.46 1013.05 1013.52 1014.11 1014.44 1014.61 1015.20
1004.44 1005.10 1005.64 1005.16 1003.96 1001.61 1000.12 999.71 999.35 998.61 996.48 995.62 996.50 997.72 999.10 999.24 1000.04 1002.18 1001.93 1002.19 1002.54 1002.36 1003.71 1004.80 1003.45 1004.66 1001.34 1004.26 1004.42 1005.81 1007.24 1007.76 1009.49 1010.75 1011.51 1012.16 1012.66 1013.30 1013.82 1014.24 1014.66 1014.79 1015.02 1015.72
1004.12 1004.86 1005.87 1005.32 1004.84 1003.30 1002.28 1000.72 999.66 998.79 998.36 997.71 997.02 998.10 999.22 999.94 1001.85 1003.74 1003.52 1003.52 1003.90 1004.22 1004.36 1005.32 1003.35 1004.78 1004.84 1006.06 1006.48 1007.61 1008.64 1009.78 1011.06 1011.78 1012.40 1013.05 1013.42 1013.87 1014.30 1014.76 1015.15 1015.35 1015.65 1016.12
1005.10 1005.51 1005.58 1005.28 1005.13 1003.77 1003.46 1001.42 999.30 999.51 1000.48 999.66 998.64 998.67 999.90 1001.12 1003.23 1004.67 1004.47 1004.76 1005.03 1005.49 1005.93 1005.95 1006.63 1007.17 1007.89 1008.29 1008.32 1009.48 1010.50 1011.52 1012.12 1012.56 1013.03 1013.60 1014.07 1014.53 1014.84 1015.17 1015.56 1016.18 1016.10 1016.33
1005.38 1005.22 1005.39 1005.14 1004.92 1004.80 1004.12 1002.16 1002.22 1002.04 1000.76 999.68 999.70 1000.51 1000.71 1002.88 1004.47 1005.39 1005.57 1006.01 1006.52 1006.69 1007.00 1007.58 1007.74 1008.75 1009.30 1009.47 1009.98 1011.21 1012.04 1012.45 1012.67 1013.11 1013.68 1014.19 1014.46 1014.89 1015.52 1015.80 1016.19 1016.55 1016.81 1016.98
1006.19 1006.33 1006.49 1006.76 1006.76 1006.58 1005.76 1005.08 1004.07 1002.42 1000.45 999.98 1000.97 1002.06 1002.69 1004.03 1005.16 1006.18 1006.70 1007.17 1007.98 1008.33 1008.66 1009.12 1009.28 1009.96 1010.98 1011.44 1011.75 1012.29 1012.82 1012.91 1013.14 1013.76 1014.36 1014.82 1015.18 1015.91 1016.18 1016.55 1017.20 1017.26 1017.23 1017.58
1006.93 1006.94 1006.85 1007.28 1007.28 1006.86 1006.32 1005.41 1004.37 1003.11 1001.98 1001.40 1001.16 1002.68 1003.58 1005.04 1005.89 1006.79 1007.51 1008.24 1009.01 1009.74 1010.28 1010.72 1011.10 1011.86 1012.58 1012.76 1012.88 1013.18 1013.23 1013.14 1013.56 1014.45 1015.35 1015.87 1016.14 1016.88 1017.54 1017.92 1018.16 1018.25 1018.53 1018.53
1008.23 1007.51 1007.58 1007.83 1007.66 1007.24 1006.74 1006.24 1005.61 1004.42 1003.62 1003.14 1003.54 1004.10 1004.83 1005.98 1006.88 1007.62 1008.47 1009.29 1010.09 1010.82 1011.32 1011.46 1011.86 1012.42 1013.13 1013.33 1013.67 1013.94 1014.03 1013.83 1013.93 1014.86 1015.73 1016.66 1016.87 1017.80 1018.71 1019.18 1019.24 1019.22 1019.62 1019.29
1008.86 1008.47 1008.40 1008.34 1008.08 1007.91 1007.70 1007.19 1006.65 1005.57 1005.70 1005.41 1005.28 1005.97 1006.60 1006.90 1007.85 1008.61 1009.45 1010.34 1010.97 1011.55 1012.10 1012.32 1012.73 1012.82 1013.16 1013.79 1014.29 1014.48 1014.50 1014.37 1014.71 1015.33 1016.23 1016.99 1017.54 1018.36 1018.96 1019.38 1019.77 1019.94 1019.88 1019.96
Wind_Speed
11 8 16 10 16 19 18 18 20 20 16 22 18 23 21 18 19 17 12 9 10 11 9 8 10 9 10 19 20 16 13 11 11 9 8 6 5 3 3 5 8 13 11 10
12 21 16 14 19 20 22 23 23 21 19 15 16 26 20 18 19 23 16 10 12 9 11 10 9 10 11 20 20 21 21 17 12 11 12 8 5 3 3 3 4 7 11 12
16 21 16 21 22 22 21 19 17 20 18 21 17 20 14 11 21 22 20 18 11 13 19 19 13 10 9 18 22 19 21 19 20 17 11 6 4 4 3 4 3 4 11 10
18 19 23 20 16 23 21 19 21 19 15 14 10 15 15 8 16 17 25 19 15 13 8 18 18 8 11 14 17 23 21 20 16 16 13 17 11 7 8 4 3 4 6 7
15 24 27 9 15 20 16 13 11 14 14 15 16 11 10 6 18 14 19 16 18 15 12 10 9 9 11 14 16 18 19 18 16 12 12 12 9 4 4 6 9 6 5 6
17 23 22 13 18 21 16 6 8 11 11 12 16 14 16 13 17 17 14 11 21 17 15 15 11 8 11 15 17 17 21 19 18 15 13 9 11 7 5 5 5 4 3 4
13 21 29 10 8 18 22 9 4 4 5 11 14 15 14 10 15 18 16 18 17 18 19 19 15 9 10 16 18 15 16 14 13 13 9 11 12 10 8 7 6 6 4 3
9 15 11 4 13 8 3 8 8 6 6 10 16 17 13 20 19 15 18 20 24 19 16 23 20 13 15 16 18 18 16 13 14 14 11 10 8 5 7 5 5 4 4 5
7 6 10 12 3 3 5 6 7 5 6 4 4 23 16 21 22 19 21 20 17 14 22 20 23 16 13 19 18 18 17 16 14 13 12 11 8 10 9 10 9 8 10 8
4 7 9 4 4 15 11 3 6 3 5 5 8 11 11 1 8 15 23 22 20 19 24 20 19 19 14 18 18 16 17 17 16 15 11 9 13 13 12 11 11 11 10 10
2 4 5 5 4 5 4 5 6 3 4 5 8 12 6 4 5 12 23 21 8 2 9 12 18 15 14 17 20 16 16 19 16 15 15 16 14 14 12 11 10 10 9 8
2 1 5 7 11 2 3 4 5 5 7 6 6 8 3 7 6 15 22 11 11 10 11 9 7 9 12 17 18 19 18 19 17 18 17 15 15 14 13 13 11 10 10 8
3 3 5 8 8 11 3 8 5 9 2 13 8 5 15 15 11 17 7 14 13 14 18 15 15 16 20 20 20 19 18 19 18 19 19 15 14 14 12 12 11 11 11 11
4 4 4 3 10 9 10 10 4 4 6 3 10 13 8 18 18 17 8 11 9 12 17 18 15 15 16 19 20 20 19 18 20 19 18 17 14 13 12 12 12 11 10 11
6 3 4 9 15 17 17 19 17 6 7 5 4 6 5 8 14 9 7 8 4 13 12 18 17 12 17 20 21 19 20 19 19 21 18 16 12 12 13 12 12 12 11 9
3 4 7 8 15 9 16 18 18 20 16 15 13 4 5 3 3 4 6 4 5 4 10 12 19 19 19 23 20 20 20 18 19 21 17 15 13 12 12 11 11 10 9 9
11 5 5 5 9 17 10 9 18 18 15 15 7 7 7 3 6 3 11 13 14 13 9 9 13 14 21 23 21 22 21 19 19 18 15 12 11 12 11 10 10 8 8 7
9 6 2 6 8 3 7 19 5 12 13 10 13 16 10 13 13 11 11 19 18 22 15 10 20 16 19 21 23 20 20 16 17 14 13 12 13 12 10 9 7 7 6 10
16 6 2 3 3 10 6 13 11 9 5 9 11 12 17 22 24 10 13 15 17 24 20 11 20 22 25 21 21 21 19 20 17 14 12 11 11 10 8 8 6 6 11 10
10 8 2 2 2 5 4 22 19 13 4 11 16 13 17 13 13 4 11 17 17 18 20 13 20 20 22 18 19 20 17 16 14 12 10 10 9 8 9 9 9 6 9 8
3 2 5 6 3 6 11 26 14 5 2 12 6 19 14 12 10 10 16 18 17 17 17 19 19 18 17 16 19 17 15 13 10 10 8 9 10 11 9 8 6 6 6 7
1 3 1 3 2 5 21 12 7 9 15 12 1 8 25 22 16 15 17 19 16 18 17 17 18 16 14 16 17 13 12 8 9 8 11 12 10 8 7 8 6 5 5 6
3 5 2 4 3 7 11 8 12 15 4 8 5 18 21 21 19 17 17 18 17 15 14 13 15 17 13 10 9 11 5 8 9 12 11 11 11 8 8 7 5 4 5 4
2 6 2 2 5 11 11 11 14 11 12 15 19 18 20 20 18 17 17 17 15 14 12 12 14 13 11 9 9 7 7 9 11 13 10 9 11 10 9 6 6 6 6 5
4 5 3 2 4 2 13 12 11 15 18 19 16 17 20 19 18 17 15 15 14 13 10 10 10 10 9 8 9 6 5 5 10 11 10 9 8 9 8 7 5 7 4 5
6 5 4 3 4 10 11 12 14 22 18 17 20 19 17 19 19 18 16 13 12 11 8 7 4 7 9 8 9 6 8 7 8 8 6 6 7 6 6 7 7 11 11 12
Wind_Direction
202 217 228 216 229 243 263 265 253 253 241 243 247 254 242 221 216 232 222 222 232 231 225 217 217 224 147 157 155 156 169 174 163 175 168 188 206 196 200 192 175 180 184 183
254 233 234 234 246 240 235 245 258 272 272 278 268 253 249 233 221 213 210 206 214 228 230 227 212 209 164 171 164 169 180 185 186 179 188 186 188 202 194 196 192 170 180 182
245 261 241 224 241 248 242 246 248 244 254 267 266 274 272 264 228 208 208 196 202 201 228 223 212 199 163 166 165 166 173 188 189 177 172 164 156 199 193 201 188 179 179 167
245 262 252 267 267 235 246 237 249 262 259 246 250 263 261 249 278 245 204 197 210 214 217 211 212 199 189 176 165 163 164 177 183 169 170 181 192 179 210 173 140 126 142 128
299 304 299 282 282 302 281 291 334 309 293 292 248 253 264 252 232 262 196 205 211 208 187 204 205 199 191 175 168 166 158 161 168 176 170 180 191 146 113 111 117 121 116 127
214 254 257 239 243 260 269 270 314 326 298 272 250 232 251 241 246 268 251 212 204 213 196 202 203 183 192 176 167 165 166 173 174 169 173 160 147 150 131 130 137 149 132 148
296 274 274 229 268 277 278 213 204 289 267 259 255 240 227 219 224 215 238 232 222 203 201 198 200 179 159 173 164 158 157 158 162 173 144 159 154 148 148 148 139 146 156 119
274 291 248 266 254 289 228 325 226 209 220 265 259 260 233 246 244 239 235 232 231 222 190 194 200 193 163 178 168 164 157 154 154 158 144 147 141 132 136 127 132 133 126 103
298 252 325 296 236 342 308 254 295 174 192 256 276 270 240 232 236 236 255 256 257 233 209 184 194 196 160 175 181 168 165 168 155 147 130 130 122 115 108 102 99 102 102 100
246 281 254 316 13 183 199 147 318 3 179 226 234 270 247 297 318 267 240 249 251 265 197 183 180 191 183 167 171 168 161 153 137 128 123 108 104 101 106 106 102 102 103 104
268 260 290 295 208 180 160 150 178 189 161 202 263 252 190 262 313 317 293 235 228 140 148 174 185 176 173 155 164 154 134 124 118 112 111 110 108 105 107 101 105 110 108 109
130 247 277 265 256 52 163 324 202 176 184 208 244 270 354 295 347 315 272 236 111 71 71 72 116 150 131 122 123 121 117 113 115 113 105 106 108 103 102 98 98 98 97 88
342 244 308 333 38 44 355 285 303 256 297 234 245 263 347 336 352 307 335 98 86 90 76 74 78 97 112 114 117 110 110 112 110 110 108 109 109 105 101 100 95 89 85 76
258 259 235 270 308 291 278 285 249 191 241 303 258 287 2 337 317 276 350 41 92 83 101 92 91 105 117 122 114 108 109 111 110 106 111 102 96 99 97 92 84 81 81 76
171 235 277 297 296 289 286 283 288 206 242 252 269 277 134 246 277 274 354 346 70 83 91 115 115 120 118 106 105 110 106 110 112 106 100 98 99 95 92 87 84 74 69 71
208 283 311 289 288 317 305 273 253 246 203 221 251 257 180 250 314 305 282 291 54 111 105 115 116 125 121 112 113 112 107 106 107 102 101 101 100 96 89 86 82 78 72 67
287 281 358 259 334 311 277 296 227 216 214 198 199 184 177 101 286 47 68 71 68 47 79 93 95 131 117 112 114 109 109 102 99 102 105 108 108 99 92 87 85 81 83 89
249 271 211 283 304 266 335 331 320 196 226 185 130 167 178 103 61 75 91 92 82 64 52 71 97 68 99 104 102 102 98 104 96 95 96 94 97 95 92 89 90 99 99 86
214 212 265 273 298 288 357 354 352 360 293 138 125 125 114 99 79 47 91 89 94 92 70 38 97 93 70 81 86 87 86 82 81 83 82 81 87 93 92 96 94 79 91 82
70 105 162 324 301 302 355 327 322 316 92 113 128 128 131 133 101 78 84 90 88 88 99 91 73 84 82 76 80 84 82 85 84 83 82 82 91 93 86 79 79 77 86 99
119 167 216 232 246 239 349 327 321 51 19 302 208 141 151 110 99 118 102 79 83 83 87 86 79 79 85 88 83 79 80 83 92 95 88 92 87 86 85 81 81 85 86 93
331 266 241 276 320 360 350 349 23 308 298 309 303 122 103 108 112 108 96 91 80 80 76 82 87 78 75 77 83 83 81 88 89 94 87 83 85 80 75 85 73 76 108 107
40 355 15 15 356 306 322 327 310 304 51 113 121 111 120 118 117 111 101 95 90 79 75 75 80 79 62 60 73 84 74 103 92 87 89 82 89 83 63 65 68 56 63 79
52 16 38 235 353 346 0 354 351 11 38 108 117 126 116 118 115 109 104 98 91 84 77 83 83 86 85 76 75 69 54 82 99 96 93 92 83 72 52 57 51 54 35 23
320 336 15 49 311 333 25 22 9 46 51 68 85 111 115 112 106 107 103 99 98 97 84 78 82 91 95 87 78 73 59 107 90 108 107 105 90 89 80 63 71 75 51 69
348 344 24 21 51 66 41 41 52 60 53 62 74 86 89 99 103 100 99 99 102 101 98 95 120 110 99 89 78 56 53 49 102 91 91 120 114 120 108 103 82 53 64 68